Location: Nguturoa
(40.4167°S, 175.5500°E)
Time: 06:11:25
(UTC+00:00)

ARGOS - Pass Details

Date: 13 December 2025
Orbit: 819 x 832 km, 98.5° (Epoch: 19 April)

Event Time Altitude Azimuth Distance (km) Brightness Sun altitude
Rises 15:13:47 0° 15° (NNE) 3,341 6.0 -13.7°
Reaches altitude 10° 15:16:06 10° 15° (NNE) 2,416 5.3 -13.4°
Maximum altitude 15:21:28 89° 100° (E) 834 3.2 -12.7°
Drops below altitude 10° 15:26:55 10° 193° (SSW) 2,448 6.1 -11.9°
Sets 15:29:17 0° 193° (SSW) 3,390 6.8 -11.6°
